Location: Newark
(35.6799°N, 139.7636°E)
Time: 19:28:32
(UTC+00:00)

Courier 1B Rocket - Pass Details

Date: 15 December 2019
Orbit: 920 x 1202 km, 28.2° (Epoch: 28 January)

Event Time Altitude Azimuth Distance (km) Brightness Sun altitude
Exits shadow 19:14:38 34° 204° (SSW) 1,747 6.1 -29.4°
Maximum altitude 19:16:39 40° 169° (S) 1,553 6.1 -28.9°
Drops below altitude 10° 19:23:05 10° 102° (ESE) 2,841 8.4 -27.7°
Sets 19:25:52 0° 95° (E) 3,750 9.4 -27.1°
